This is the latest recevied weather packets stored in our database for station/object XE2VP-WX. If no packets are shown the sender has not sent any weather packets the latest 1 day(s).
| Time | Temp. | Humidity | Pressure | Rain* | Wind** | Luminosity | Snow |
|---|---|---|---|---|---|---|---|
| 1777986273 | 22.22° C | 67% | 939.8 hPa | 0 mm | 0.89 m/s, 275° | 123 W/m² | - |
| 1777986214 | 21.67° C | 67% | 939.8 hPa | 0 mm | 0.89 m/s, 286° | 119 W/m² | - |
| 1777986153 | 21.67° C | 67% | 939.8 hPa | 0 mm | 0.89 m/s, 223° | 115 W/m² | - |
| 1777986092 | 21.67° C | 68% | 939.8 hPa | 0 mm | 0.89 m/s, 299° | 113 W/m² | - |
| 1777986032 | 21.67° C | 68% | 939.8 hPa | 0 mm | 0.89 m/s, 0° | 112 W/m² | - |
| 1777985967 | 21.67° C | 69% | 939.8 hPa | 0 mm | 0.89 m/s, 286° | 109 W/m² | - |
| 1777985908 | 21.67° C | 69% | 939.7 hPa | 0 mm | 0.89 m/s, 328° | 106 W/m² | - |
| 1777985847 | 21.67° C | 69% | 939.7 hPa | 0 mm | 0.89 m/s, 303° | 103 W/m² | - |
| 1777985786 | 21.67° C | 69% | 939.7 hPa | 0 mm | 0.89 m/s, 285° | 102 W/m² | - |
| 1777985725 | 21.67° C | 69% | 939.7 hPa | 0 mm | 0.89 m/s, 277° | 99 W/m² | - |
| 1777985665 | 21.67° C | 70% | 939.7 hPa | 0 mm | 0.89 m/s, 245° | 96 W/m² | - |
| 1777985606 | 21.67° C | 70% | 939.7 hPa | 0 mm | 0.89 m/s, 210° | 93 W/m² | - |
| 1777985530 | 21.67° C | 70% | 939.7 hPa | 0 mm | 0.89 m/s, 262° | 89 W/m² | - |
| 1777985470 | 21.11° C | 70% | 939.7 hPa | 0 mm | 0.89 m/s, 253° | 87 W/m² | - |
| 1777985410 | 21.11° C | 70% | 939.7 hPa | 0 mm | 0.89 m/s, 231° | 83 W/m² | - |
| 1777985350 | 21.11° C | 70% | 939.7 hPa | 0 mm | 0.89 m/s, 250° | 79 W/m² | - |
| 1777985290 | 21.11° C | 70% | 939.7 hPa | 0 mm | 0.45 m/s, 257° | 67 W/m² | - |
| 1777985230 | 21.11° C | 70% | 939.6 hPa | 0 mm | 0.89 m/s, 265° | 57 W/m² | - |
| 1777985170 | 21.11° C | 70% | 939.6 hPa | 0 mm | 0.45 m/s, 280° | 54 W/m² | - |
| 1777985110 | 21.11° C | 70% | 939.6 hPa | 0 mm | 0.45 m/s, 315° | 55 W/m² | - |
| 1777985050 | 21.11° C | 70% | 939.6 hPa | 0 mm | 0.45 m/s, 233° | 53 W/m² | - |
| 1777984990 | 21.11° C | 70% | 939.6 hPa | 0 mm | 0.45 m/s, 270° | 48 W/m² | - |
| 1777984930 | 21.11° C | 70% | 939.6 hPa | 0 mm | 0.45 m/s, 0° | 49 W/m² | - |
| 1777984870 | 21.11° C | 70% | 939.6 hPa | 0 mm | 0.45 m/s, 218° | 48 W/m² | - |
| 1777984810 | 21.11° C | 70% | 939.6 hPa | 0 mm | 0.45 m/s, 258° | 43 W/m² | - |
* Rain latest hour (hover to see other rain measurements)
** Current wind speed in m/s (hover to see current wind gust speed)